Hourly Data Report for May 17, 2012

All times are specified in Local Standard Time (LST). Add 1 hour to adjust for Daylight Saving Time where and when it is observed.

DEER LAKE A
NEWFOUNDLAND

49°12'33.000" N
57°23'40.000" W
21.90 m
8401502
71809
YDF

Download Data

Hourly Data (May 2012)
Hourly Data Report for May 17, 2012
Temp Definition
°C
Dew Point Temp Definition
°C
Rel Hum Definition
%
Wind Dir Definition
10's deg

Wind Spd Definition
km/h
Visibility Definition
km
Stn Press Definition
kPa
Hmdx Definition


Wind Chill Definition


Weather Definition


TIME
00:30 Legend Double Dagger 15.1 12.1 82 19 24 10.0 101.47     Rain Showers
01:30 Legend Double Dagger 14.8 12.3 85 17 12 10.0 101.41     LegendNANA
02:30 Legend Double Dagger 13.7 12.4 92   0 10.0 101.35     Cloudy
03:30 Legend Double Dagger 13.0 12.5 97   0 10.0 101.28     Rain Showers
04:30 Legend Double Dagger 13.2 11.9 92 19 12 10.0 101.25     Rain Showers
05:30
06:30 Legend Double Dagger 13.4 12.3 93 14 5 10.0 101.19     Rain Showers
07:30 Legend Double Dagger 14.2 12.9 92 17 8 10.0 101.17     Rain Showers
08:30 Legend Double Dagger 15.0 13.4 90 18 12 10.0 101.13     Rain Showers
09:30 Legend Double Dagger 16.5 13.8 84 20 30 10.0 101.11     Rain Showers
10:30 Legend Double Dagger 17.6 14.7 83 19 28 10.0 101.05     LegendNANA
11:30 Legend Double Dagger 18.8 14.5 76 21 31 10.0 101.02     Cloudy
12:30 Legend Double Dagger 19.1 14.2 73 20 29 10.0 100.97     LegendNANA
13:30 Legend Double Dagger 19.0 14.1 73 19 26 10.0 100.90     LegendNANA
14:30 Legend Double Dagger 19.5 14.6 73 18 18 10.0 100.84     Cloudy
15:30 Legend Double Dagger 19.0 14.1 73 19 21 10.0 100.81     LegendNANA
16:30 Legend Double Dagger 17.9 14.1 78 19 26 10.0 100.76     LegendNANA
17:30 Legend Double Dagger 17.4 13.8 79 19 17 10.0 100.72     Cloudy
18:30 Legend Double Dagger 17.3 13.9 80 20 16 10.0 100.66     LegendNANA
19:30 Legend Double Dagger 15.8 14.2 90 19 15 10.0 100.62     Rain Showers
20:30 Legend Double Dagger 15.0 13.9 93 21 8 10.0 100.61     Rain Showers
21:30 Legend Double Dagger 14.4 13.8 96 21 10 10.0 100.59     Rain Showers
22:30 Legend Double Dagger 14.4 13.6 95 23 7 10.0 100.56     Rain Showers
23:30 Legend Double Dagger 11.6 10.7 94 23 17 10.0 100.69     Rain Showers

Notes on Data Quality.

Legend

  • E = Estimated
  • M = Missing
  • NA = Not Available
  • ‡ = Partner data that is not subject to review by the National Climate Archives
Date modified: